Regional Weather Roundup
Issued by NWS

Home | Current Version | Previous Version | Graphics & Text | Print | Product List | Glossary On
Versions: 1 2 3 4 5 6 7 8 9 10 11 12 13 14 15 16 17 18 19 20 21 22 23 24 25 26 27 28 29 30 31 32 33 34 35 36 37 38 39 40 41 42 43 44 45 46 47 48 49 50
000
ASUS43 KLOT 200803
RWRIL

ILLINOIS REGIONAL WEATHER ROUNDUP
NATIONAL WEATHER SERVICE CHICAGO/ROMEOVILLE IL
200 AM CST FRI JAN 20 2017

NOTE: "FAIR" INDICATES FEW OR NO CLOUDS BELOW 12,000 FEET WITH NO
SIGNIFICANT WEATHER AND/OR OBSTRUCTIONS TO VISIBILITY.

* THESE STATIONS ARE NOT UNDER NWS QUALITY CONTROL. THEY ALSO MAY NOT
  REPORT WEATHER SUCH AS PRECIPITATION OR FOG.

ILZ001-002-007-009-015-016-024-200900-
NORTHWEST ILLINOIS

CITY           SKY/WX    TMP DP  RH WIND       PRES   REMARKS
MOLINE         FOG       38  36  92 NE3       29.62F VSB 1/4
STERLING*      CLOUDY    36  36 100 E7        29.65R FOG     WCI  30
SAVANNA*       CLOUDY    37  37  99 E3        29.65S FOG
$$

ILZ003-004-008-010-011-017-018-200900-
NORTH CENTRAL ILLINOIS

CITY           SKY/WX    TMP DP  RH WIND       PRES   REMARKS
ROCKFORD       DRIZZLE   38  36  92 E7        29.66S FOG     WCI  33
FREEPORT*      FOG       35  35 100 E3        29.67R VSB 1
ROCHELLE*      CLOUDY    36  36 100 NE7       29.65R FOG     WCI  30
DE KALB*       CLOUDY    38  37  99 E9        29.65S FOG     WCI  31
$$

ILZ005-006-012>014-019>023-200900-
NORTHEAST ILLINOIS

CITY           SKY/WX    TMP DP  RH WIND       PRES   REMARKS
CHICAGO-OHARE  LGT RAIN  38  37  97 NE10      29.65F FOG     WCI  31
CHICAGO-MIDWAY LGT RAIN  37  37 100 E15G25    29.65F FOG     WCI  28
AURORA         CLOUDY    40  37  89 E8        29.64S FOG
LANSING*       RAIN      38  38 100 NE5       29.64F WCI  34
JOLIET*        RAIN      40  39  97 NE8       29.64R
WAUKEGAN       LGT RAIN  37  36  96 NE10      29.68S FOG     WCI  30
DUPAGE AIRPORT LGT RAIN  38  36  92 E14       29.63F WCI  30
WHEELING       LGT RAIN  38  36  92 E6        29.68F FOG     WCI  33
MORRIS*        LGT RAIN  37  37  97 NE3       29.63S
ROMEOVILLE*    LGT RAIN  38  38 100 NE8       29.64S WCI  32
NORTHERLY ISL    N/A     36  35  96 NE6         N/A  WCI  31
$$

LMZ740>746-200900-
SOUTHERN LAKE MICHIGAN

STATION/POSITION SKY/WX   TEMP    WIND        PRES    VSBY  WAVE
                          AIR SEA DIR/SP/G                  HT/PER
                          (F)     (DEG/KT/KT) (MB)    (MI)  (FT/S)
HARRISON CRIB              38      70/ 12/ 13   N/A
BURNHAM HARBOR             36      20/  7/  8   N/A
CALUMET HARBOR             35      40/  8/ 10 1003.9F
BURNS HARBOR               35      80/  6/  9 1005.1F
MICHIGAN CITY              36      30/ 10/ 11   N/A
$$

ILZ025>027-034>036-040-047-049-050-058-095>099-200900-
WEST-CENTRAL ILLINOIS

CITY           SKY/WX    TMP DP  RH WIND       PRES   REMARKS
QUINCY         FOG       42  42 100 CALM      29.61R VSB 1/4
GALESBURG*     FOG       37  37 100 CALM      29.62R VSB 1/4
MACOMB*        FOG       38  38 100 CALM      29.63S VSB 1/4
JACKSONVILLE*  FOG       41  41 100 CALM      29.60S VSB 1/2
PITTSFIELD*    FOG       42  42 100 CALM      29.62R VSB 1/4
$$

ILZ028>032-037-038-041>044-048-051>054-059>061-200900-
CENTRAL ILLINOIS

CITY           SKY/WX    TMP DP  RH WIND       PRES   REMARKS
BLOOMINGTON    FOG       39  39 100 NE3       29.61F VSB 1/4
DECATUR        RAIN      43  33  68 CALM      29.59S
PEORIA         FOG       39  39 100 E6        29.61F VSB 1/2 WCI  35
LACON*         CLOUDY    37  37 100 CALM      29.63R FOG
LINCOLN*       CLOUDY    42  42 100 CALM      29.60S FOG
SPRINGFIELD    RAIN      44  42  93 E17       29.57F FOG
TAYLORVILLE    LGT RAIN  42  42 100 N6        29.60S
$$

ILZ033-039-045-046-055>057-062-063-200900-
EAST-CENTRAL ILLINOIS

CITY           SKY/WX    TMP DP  RH WIND       PRES   REMARKS
CHAMPAIGN      RAIN      44  43  96 NE5       29.59F FOG
MATTOON        LGT RAIN  44  44 100 CALM      29.58F FOG
PARIS*         RAIN      45  45 100 W3        29.60R
$$

ILZ079-100>102-200900-
SOUTHWEST ILLINOIS

CITY           SKY/WX    TMP DP  RH WIND       PRES   REMARKS
ALTON          CLOUDY    44  44 100 SE3       29.62S FOG
BELLEVILLE     CLOUDY    46  46  99 CALM      29.62R FOG
CAHOKIA*       CLOUDY    47  45  93 S5        29.63R
SPARTA*        CLOUDY    47  47 100 SW5       29.64R FOG
$$

ILZ064>066-069>071-074>076-080>082-084>086-088>090-092>094-200900-
SOUTH-CENTRAL ILLINOIS

CITY           SKY/WX    TMP DP  RH WIND       PRES   REMARKS
CARBONDALE     CLOUDY    53  53 100 SW14      29.63R
CAIRO*         CLOUDY    53  53 100 SW8       29.67R FOG
EFFINGHAM*     DRIZZLE   47  47 100 S3        29.62R
MARION         CLOUDY    55  55 100 SW9       29.64R
MT. VERNON     CLOUDY    49  49 100 SW6       29.62R FOG
CENTRALIA*     CLOUDY    49  49 100 SW7       29.61R FOG
SALEM*         CLOUDY    48  47  95 CALM      29.61R FOG
$$

ILZ067-068-072-073-078-083-087-091-200900-
SOUTHEAST ILLINOIS

CITY           SKY/WX    TMP DP  RH WIND       PRES   REMARKS
LAWRENCEVILLE  RAIN      53  53 100 SW10      29.61R FOG
FLORA*         CLOUDY    50  49  97 SW5       29.62R
FAIRFIELD*     CLOUDY    51  51 100 CALM      29.61S
HARRISBURG*    CLOUDY    56  54  94 SW13      29.64R
ROBINSON*      LGT RAIN  52  52 100 SW12      29.61R
CARMI*         CLOUDY    56  55  99 SW8       29.62R
$$

ABBREVIATIONS USED IN REMARKS
   TC - TEMPERATURE IN CELSIUS
  WCI - WIND CHILL INDEX
   HX - HEAT INDEX
  VSB - VISIBILITY
$$





USA.gov is the U.S. government's official web portal to all federal, state and local government web resources and services.